Starlink 5910

operational
NORAD ID: 56000 Int'l Des: 2023-042 Owner: SPXS Country: US Constellation: starlink
LEOCIRCULAR

关于 Starlink 5910

正在加载描述...

实时位置

正在加载3D地球...

即将过境

高度历史

Altitude vs Time

uPlot chart will show altitude changes over time

两行轨道根数

1 56000U 23042Q 25302.99355280 .00002284 00000-0 18412-3 0 9990
2 56000 43.0027 45.9872 0001105 269.9417 90.1299 15.02523275143256
Epoch: Oct 29, 2025 • Age: 24 hours

当前状态

高度 562.1 km
速度 7.59 km/s
星下点 39.05°N, 116.85°E
发射日期 Mar 24, 2023
运行时间 2.6 years
类型 internet

技术详情

分类 Payload
质量 305.00 kg
干质量 290.00 kg
总质量 305.00 kg
长度 0.20 m
直径 2.80 m
跨度 9.00 m
形状 Box + pan
制造商 SPXS
平台类型 Starlink
阶段状态 In Orbit
所有者/国家 SPXS/US

大型星座

Loading constellations...